When you browse on this site, cookies collect data to enhance your experience and personalize the content and advertising you see.
Visit our Privacy Policy to learn more. By continuing to use the site, you agree to this use of cookies and data.
  • In Portugal
  • List of Countries
  • For 7 days
  • Water Temperature
  • Satellite Maps
  • Weather Map
  • Weather Widgets
  • user-avatar
    Login

    Hourly Weather Trosna

    Today, 17 November, Saturday

    Time Temperature Precipitation Wind Pressure Humidity
    00:00 -5°C° 0 mm 3 mps 761 mmHg 25%
    01:00 -5°C° 0 mm 3 mps 761 mmHg 25%
    02:00 -5°C° 0 mm 3 mps 761 mmHg 25%
    03:00 -5°C° 0 mm 3 mps 760 mmHg 25%
    04:00 -4°C° 0 mm 2 mps 760 mmHg 25%
    05:00 -4°C° 0 mm 2 mps 760 mmHg 25%
    06:00 -4°C° 0 mm 2 mps 760 mmHg 24%
    07:00 -4°C° 0 mm 2 mps 760 mmHg 24%
    08:00 -4°C° 0 mm 2 mps 760 mmHg 23%
    09:00 -3°C° 0 mm 2 mps 760 mmHg 21%
    10:00 -2°C° 0 mm 2 mps 759 mmHg 19%
    11:00 +1°C° 0 mm 2 mps 759 mmHg 17%
    12:00 +2°C° 0 mm 1 mps 759 mmHg 19%
    13:00 +2°C° 0 mm 1 mps 758 mmHg 20%
    14:00 +2°C° 0 mm 1 mps 758 mmHg 21%
    15:00 +1°C° 0 mm 1 mps 757 mmHg 22%
    16:00 0°C° 0 mm 1 mps 757 mmHg 22%
    17:00 -1°C° 0 mm 1 mps 756 mmHg 22%
    18:00 -1°C° 0 mm 1 mps 756 mmHg 23%
    19:00 -1°C° 0 mm 1 mps 755 mmHg 23%
    20:00 -1°C° 0 mm 1 mps 755 mmHg 23%
    21:00 -3°C° 0 mm 2 mps 754 mmHg 24%
    22:00 -3°C° 0 mm 2 mps 753 mmHg 25%
    23:00 -3°C° 0 mm 2 mps 753 mmHg 26%

    Tomorrow, 18 November, Sunday

    Time Temperature Precipitation Wind Pressure Humidity
    00:00 -4°C° 0 mm 3 mps 752 mmHg 27%
    01:00 -4°C° 0 mm 3 mps 751 mmHg 28%
    02:00 -4°C° 0 mm 3 mps 751 mmHg 29%
    03:00 -4°C° 0 mm 3 mps 750 mmHg 31%
    04:00 -4°C° 0 mm 4 mps 749 mmHg 34%
    05:00 -4°C° 0 mm 4 mps 748 mmHg 36%
    06:00 -4°C° 0 mm 4 mps 748 mmHg 39%
    07:00 -4°C° 0 mm 4 mps 747 mmHg 42%
    08:00 -4°C° 0 mm 4 mps 747 mmHg 45%
    09:00 -4°C° 0.1 mm 4 mps 746 mmHg 50%
    10:00 -3°C° 0.1 mm 4 mps 746 mmHg 55%
    11:00 -2°C° 0.1 mm 3 mps 746 mmHg 60%
    12:00 -2°C° 0.1 mm 3 mps 745 mmHg 63%
    13:00 -2°C° 0.1 mm 3 mps 745 mmHg 67%
    14:00 -2°C° 0.1 mm 3 mps 745 mmHg 70%
    15:00 -2°C° 0 mm 2 mps 745 mmHg 73%
    16:00 -2°C° 0 mm 2 mps 744 mmHg 77%
    17:00 -3°C° 0 mm 2 mps 744 mmHg 80%
    18:00 -3°C° 0.1 mm 2 mps 744 mmHg 83%
    19:00 -1°C° 0.1 mm 1 mps 744 mmHg 85%
    20:00 -1°C° 0.1 mm 1 mps 744 mmHg 88%
    21:00 -1°C° 0.1 mm 1 mps 744 mmHg 89%
    22:00 -1°C° 0.1 mm 1 mps 745 mmHg 90%
    23:00 -1°C° 0.1 mm 1 mps 745 mmHg 91%

    Day after tomorrow, 19 November, Monday

    Time Temperature Precipitation Wind Pressure Humidity
    00:00 -1°C° 0.1 mm 1 mps 745 mmHg 90%
    01:00 -1°C° 0.1 mm 1 mps 745 mmHg 90%
    02:00 -1°C° 0.1 mm 1 mps 745 mmHg 89%
    03:00 -1°C° 0.1 mm 1 mps 745 mmHg 87%
    04:00 -1°C° 0.1 mm 1 mps 746 mmHg 86%
    05:00 -1°C° 0.1 mm 1 mps 746 mmHg 84%
    06:00 -1°C° 0.1 mm 1 mps 746 mmHg 82%
    07:00 -1°C° 0.1 mm 1 mps 746 mmHg 80%
    08:00 -3°C° 0.1 mm 2 mps 747 mmHg 78%
    09:00 -3°C° 0 mm 2 mps 747 mmHg 72%
    10:00 -2°C° 0 mm 2 mps 748 mmHg 66%
    11:00 -2°C° 0 mm 2 mps 748 mmHg 60%
    12:00 -2°C° 0 mm 2 mps 748 mmHg 59%
    13:00 -1°C° 0 mm 2 mps 748 mmHg 58%
    14:00 -1°C° 0 mm 2 mps 748 mmHg 56%
    15:00 -2°C° 0 mm 2 mps 748 mmHg 58%
    16:00 -3°C° 0 mm 2 mps 749 mmHg 61%
    17:00 -4°C° 0 mm 3 mps 749 mmHg 63%
    18:00 -4°C° 0 mm 3 mps 749 mmHg 63%
    19:00 -4°C° 0 mm 3 mps 749 mmHg 63%
    20:00 -4°C° 0 mm 3 mps 749 mmHg 63%
    21:00 -4°C° 0 mm 3 mps 749 mmHg 66%
    22:00 -4°C° 0 mm 3 mps 750 mmHg 69%
    23:00 -4°C° 0 mm 3 mps 750 mmHg 72%

    20 November, Tuesday

    Time Temperature Precipitation Wind Pressure Humidity
    00:00 -4°C° 0.2 mm 4 mps 750 mmHg 77%
    01:00 -4°C° 0.2 mm 4 mps 750 mmHg 83%
    02:00 -4°C° 0.2 mm 4 mps 750 mmHg 88%
    03:00 -4°C° 0.2 mm 4 mps 750 mmHg 90%
    04:00 -3°C° 0.2 mm 4 mps 749 mmHg 91%
    05:00 -4°C° 0.2 mm 5 mps 749 mmHg 92%
    06:00 -4°C° 0.2 mm 5 mps 749 mmHg 92%
    07:00 -4°C° 0.2 mm 5 mps 749 mmHg 92%
    08:00 -4°C° 0.2 mm 5 mps 749 mmHg 91%
    09:00 -4°C° 0.4 mm 5 mps 749 mmHg 91%
    10:00 -3°C° 0.4 mm 4 mps 749 mmHg 91%
    11:00 -3°C° 0.4 mm 4 mps 748 mmHg 91%
    12:00 -3°C° 0.3 mm 4 mps 748 mmHg 92%
    13:00 -2°C° 0.3 mm 4 mps 748 mmHg 93%
    14:00 -1°C° 0.3 mm 3 mps 748 mmHg 93%
    15:00 -1°C° 0.2 mm 3 mps 747 mmHg 94%
    16:00 -1°C° 0.2 mm 3 mps 747 mmHg 94%
    17:00 -1°C° 0.2 mm 3 mps 747 mmHg 95%
    18:00 -1°C° 0 mm 3 mps 747 mmHg 95%
    19:00 -1°C° 0 mm 3 mps 747 mmHg 95%
    20:00 -1°C° 0 mm 2 mps 747 mmHg 95%
    21:00 -1°C° 0 mm 2 mps 747 mmHg 95%
    22:00 -1°C° 0 mm 2 mps 747 mmHg 95%
    23:00 -1°C° 0 mm 2 mps 747 mmHg 96%

    21 November, Wednesday

    Time Temperature Precipitation Wind Pressure Humidity
    00:00 -2°C° 0 mm 2 mps 747 mmHg 96%
    01:00 -2°C° 0 mm 2 mps 747 mmHg 96%
    02:00 -2°C° 0 mm 2 mps 747 mmHg 96%
    03:00 -2°C° 0 mm 3 mps 746 mmHg 95%
    04:00 -2°C° 0 mm 3 mps 746 mmHg 95%
    05:00 -2°C° 0 mm 3 mps 746 mmHg 95%
    06:00 -2°C° 0 mm 3 mps 746 mmHg 94%
    07:00 -3°C° 0 mm 4 mps 746 mmHg 94%
    08:00 -3°C° 0 mm 4 mps 746 mmHg 93%
    09:00 -3°C° 0 mm 4 mps 746 mmHg 92%
    10:00 -4°C° 0 mm 5 mps 746 mmHg 92%
    11:00 -4°C° 0 mm 5 mps 746 mmHg 91%
    12:00 -4°C° 0.1 mm 5 mps 746 mmHg 91%
    13:00 -4°C° 0.1 mm 5 mps 746 mmHg 91%
    14:00 -4°C° 0.1 mm 5 mps 746 mmHg 91%
    15:00 -4°C° 0.2 mm 5 mps 746 mmHg 91%
    16:00 -4°C° 0.2 mm 5 mps 746 mmHg 92%
    17:00 -4°C° 0.2 mm 6 mps 746 mmHg 92%
    18:00 -4°C° 0.3 mm 6 mps 746 mmHg 92%
    19:00 -4°C° 0.3 mm 6 mps 746 mmHg 92%
    20:00 -4°C° 0.3 mm 6 mps 746 mmHg 92%
    21:00 -4°C° 0.1 mm 6 mps 746 mmHg 92%
    22:00 -4°C° 0.1 mm 6 mps 745 mmHg 92%
    23:00 -4°C° 0.1 mm 6 mps 745 mmHg 91%

    22 November, Thursday

    Time Temperature Precipitation Wind Pressure Humidity
    00:00 -4°C° 0 mm 6 mps 745 mmHg 91%
    01:00 -4°C° 0 mm 7 mps 745 mmHg 91%
    02:00 -4°C° 0 mm 7 mps 745 mmHg 91%
    03:00 -4°C° 0 mm 7 mps 745 mmHg 90%
    04:00 -4°C° 0 mm 7 mps 745 mmHg 90%
    05:00 -6°C° 0 mm 7 mps 745 mmHg 89%
    06:00 -6°C° 0.1 mm 7 mps 745 mmHg 88%
    07:00 -6°C° 0.1 mm 7 mps 745 mmHg 87%
    08:00 -6°C° 0.1 mm 7 mps 745 mmHg 87%
    09:00 -4°C° 0.1 mm 7 mps 745 mmHg 85%
    10:00 -4°C° 0.1 mm 7 mps 746 mmHg 84%
    11:00 -4°C° 0.1 mm 7 mps 746 mmHg 83%
    12:00 -4°C° 0 mm 7 mps 746 mmHg 83%
    13:00 -4°C° 0 mm 7 mps 746 mmHg 83%
    14:00 -4°C° 0 mm 6 mps 746 mmHg 83%
    15:00 -5°C° 0 mm 6 mps 746 mmHg 85%
    16:00 -5°C° 0 mm 6 mps 746 mmHg 86%
    17:00 -6°C° 0 mm 6 mps 747 mmHg 88%
    18:00 -6°C° 0 mm 6 mps 747 mmHg 88%
    19:00 -8°C° 0 mm 6 mps 747 mmHg 89%
    20:00 -8°C° 0 mm 6 mps 747 mmHg 90%
    21:00 -8°C° 0 mm 6 mps 748 mmHg 90%
    22:00 -8°C° 0 mm 6 mps 748 mmHg 90%
    23:00 -7°C° 0 mm 5 mps 748 mmHg 91%
    Show more